Change the Weather History Date:

Sunday, January 5, 2014

  Actual Average (KIPT) Record (KIPT)
Temperature  
Mean Temperature 18 °F 27 °F  
Max Temperature 33 °F 34 °F 61 °F (2007)
Min Temperature 3 °F 20 °F -17 °F (1904)
Degree Days  
Heating Degree Days 47 38  
Month to date heating degree days 190  
Since 1 July heating degree days 2483  
Cooling Degree Days 0 0  
Month to date cooling degree days 0  
Year to date cooling degree days 0  
Moisture  
Dew Point 20 °F    
Average Humidity 87    
Maximum Humidity 96    
Minimum Humidity 56    
Precipitation  
Precipitation 0.16 in 0.09 in 0.88 in (1914)
Month to date precipitation 0.41  
Year to date precipitation 0.41  
Snow  
Snow 0.00 in - - ()
Month to date snowfall  
Since 1 July snowfall  
Snow Depth -    
Sea Level Pressure  
Sea Level Pressure 30.01 in    
Wind  
Wind Speed 1 mph (North)    
Max Wind Speed 6 mph    
Max Gust Speed -    
Visibility 4 miles    
Events Rain    
T = Trace of Precipitation, MM = Missing Value Source: NWS Daily Summary

Daily Weather History Graph

Daily Weather History Graph

Search for Another Location

Airport or City:

Trip Planner

Search our weather history database for the weather conditions in past years. The results will help you decide how hot, cold, wet, or windy it might be!

Date:

Astronomy

Jan. 05, 2014 Rise Set
Actual Time 7:31 AM EST 4:54 PM EST
Civil Twilight 7:01 AM EST 5:24 PM EST
Nautical Twilight 6:26 AM EST 5:59 PM EST
Astronomical Twilight 5:53 AM EST 6:32 PM EST
Moon 10:10 AM EST (1/5) 10:21 PM EST (1/5)
Length of Visible Light 10h 23m
Length of Day
9h 22m
Waxing Crescent, 24% of the Moon is Illuminated
Jan 5
Waxing Crescent
Jan 7
First Quarter
Jan 15
Full
Jan 24
Last Quarter
Jan 30
New

Hourly Weather History & Observations

Time (EST) Temp. Windchill Dew Point Humidity Pressure Visibility Wind Dir Wind Speed Gust Speed Precip Events Conditions
12:53 AM 8.1 °F - 3.9 °F 83% 30.27 in 8.0 mi Calm Calm - N/A   Clear
1:53 AM 6.1 °F -0.9 °F 3.0 °F 87% 30.27 in 8.0 mi NNW 3.5 mph - N/A   Clear
2:53 AM 7.0 °F -1.7 °F 3.0 °F 84% 30.27 in 9.0 mi NW 4.6 mph - N/A   Clear
3:53 AM 5.0 °F - 1.0 °F 84% 30.29 in 8.0 mi Calm Calm - N/A   Clear
4:19 AM 5.0 °F -2.1 °F 1.0 °F 84% 30.26 in 9.0 mi NNW 3.5 mph - N/A   Scattered Clouds
4:53 AM 3.9 °F - -0.9 °F 80% 30.28 in 8.0 mi Calm Calm - N/A   Clear
5:06 AM 3.0 °F -4.4 °F -0.0 °F 87% 30.25 in 9.0 mi NW 3.5 mph - N/A   Partly Cloudy
5:53 AM 3.9 °F -5.3 °F 1.0 °F 88% 30.28 in 8.0 mi NNW 4.6 mph - N/A   Clear
6:53 AM 3.9 °F - -0.9 °F 80% 30.28 in 8.0 mi Calm Calm - N/A   Clear
7:53 AM 3.9 °F - 1.0 °F 88% 30.28 in 6.0 mi Calm Calm - N/A   Clear
8:53 AM 9.0 °F 2.4 °F 5.0 °F 84% 30.30 in 5.0 mi NW 3.5 mph - N/A   Partly Cloudy
9:53 AM 16.0 °F - 14.0 °F 92% 30.28 in 5.0 mi Calm Calm - N/A   Clear
10:53 AM 21.0 °F - 15.1 °F 78% 30.25 in 5.0 mi Calm Calm - N/A   Haze
11:53 AM 25.0 °F - 16.0 °F 69% 30.19 in 6.0 mi Calm Calm - N/A   Haze
12:53 PM 27.0 °F - 14.0 °F 58% 30.13 in 10.0 mi Calm Calm - N/A   Mostly Cloudy
1:53 PM 28.9 °F - 15.1 °F 56% 30.11 in 10.0 mi Calm Calm - N/A   Overcast
2:53 PM 28.9 °F - 19.9 °F 69% 30.09 in 2.0 mi Calm Calm - 0.00 in   Overcast
3:09 PM 28.0 °F - 21.9 °F 78% 30.06 in 3.0 mi Calm Calm - 0.01 in   Overcast
3:28 PM 28.0 °F - 23.0 °F 81% 30.06 in 2.5 mi Calm Calm - 0.01 in   Overcast
3:36 PM 28.0 °F - 23.0 °F 81% 30.05 in 4.0 mi Calm Calm - 0.01 in   Overcast
3:51 PM 28.4 °F 24.6 °F 24.8 °F 86% 30.03 in 2.0 mi East 3.5 mph - 0.01 in   Overcast
3:53 PM 28.0 °F 24.2 °F 24.1 °F 85% 30.06 in 2.0 mi East 3.5 mph - 0.02 in   Overcast
4:10 PM 28.0 °F 24.2 °F 25.0 °F 88% 30.02 in 1.8 mi East 3.5 mph - 0.00 in   Overcast
4:13 PM 28.0 °F - 26.1 °F 92% 30.02 in 2.0 mi Calm Calm - 0.00 in   Overcast
4:28 PM 28.9 °F - 26.1 °F 89% 30.00 in 1.8 mi Calm Calm - 0.01 in   Overcast
4:44 PM 28.9 °F - 26.1 °F 89% 30.00 in 1.8 mi Calm Calm - 0.02 in   Overcast
4:53 PM 28.9 °F - 26.1 °F 89% 30.03 in 1.5 mi Calm Calm - 0.02 in   Overcast
5:02 PM 28.9 °F 25.2 °F 26.1 °F 89% 29.99 in 2.0 mi North 3.5 mph - 0.00 in   Overcast
5:16 PM 28.9 °F - 27.0 °F 92% 29.98 in 2.5 mi Calm Calm - 0.00 in Rain Light Freezing Rain
5:31 PM 28.9 °F 25.2 °F 27.0 °F 92% 29.97 in 1.8 mi North 3.5 mph - 0.01 in Rain Light Freezing Rain
5:53 PM 30.0 °F 25.2 °F 27.0 °F 88% 29.99 in 2.0 mi North 4.6 mph - 0.02 in Rain Light Freezing Rain
6:19 PM 30.0 °F - 28.0 °F 92% 29.94 in 1.8 mi Calm Calm - 0.00 in Rain Light Freezing Rain
6:53 PM 30.0 °F - 28.0 °F 92% 29.94 in 1.8 mi Calm Calm - 0.00 in   Overcast
7:12 PM 30.0 °F - 28.0 °F 92% 29.90 in 2.0 mi Calm Calm - N/A   Overcast
7:49 PM 30.2 °F 25.4 °F 28.4 °F 93% 29.87 in 2.0 mi North 4.6 mph - 0.00 in   Overcast
7:53 PM 30.0 °F 24.1 °F 28.0 °F 92% 29.89 in 2.0 mi North 5.8 mph - 0.00 in   Overcast
8:23 PM 30.0 °F 26.5 °F 28.9 °F 96% 29.83 in 1.8 mi NNW 3.5 mph - N/A   Overcast
8:35 PM 30.0 °F - 28.9 °F 96% 29.82 in 1.5 mi Calm Calm - 0.00 in   Overcast
8:44 PM 30.0 °F - 28.9 °F 96% 29.81 in 1.2 mi Calm Calm - 0.01 in Rain Light Freezing Rain
8:51 PM 30.2 °F - 28.4 °F 93% 29.80 in 1.0 mi Calm Calm - 0.01 in Rain Light Freezing Rain
8:53 PM 30.9 °F - 28.9 °F 92% 29.82 in 1.0 mi Calm Calm - 0.01 in Rain Light Freezing Rain
9:51 PM 32.0 °F - 30.2 °F 93% 29.76 in 0.8 mi Calm Calm - 0.08 in   Overcast
9:52 PM 32.0 °F - 30.0 °F 92% 29.77 in 0.8 mi Calm Calm - 0.08 in   Overcast
10:06 PM 32.0 °F 28.7 °F 30.0 °F 92% 29.73 in 1.0 mi SE 3.5 mph - 0.01 in   Overcast
10:33 PM 32.0 °F 28.7 °F 30.9 °F 96% 29.71 in 1.0 mi Variable 3.5 mph - 0.01 in Rain Light Freezing Rain
10:53 PM 33.1 °F - 32.0 °F 96% 29.70 in 1.0 mi Calm Calm - 0.01 in   Overcast
11:22 PM 33.1 °F 30.0 °F 32.0 °F 96% 29.65 in 1.0 mi SE 3.5 mph - 0.00 in Rain Light Rain
11:43 PM 33.1 °F 30.0 °F 32.0 °F 96% 29.63 in 0.8 mi SE 3.5 mph - 0.00 in Rain Light Rain
11:53 PM 33.1 °F - 32.0 °F 96% 29.64 in 0.8 mi Calm Calm - 0.00 in   Overcast